,,PressureMeas_1m,,PRMeasQMR101_1,,RHStat155_1m_1,,SRMeasQMS101R_1m,,TAStat155_1m_1,,GenWind_1,,GenWind_1,
2017-06-27, 07:00:06,VALID,917.44,VALID,0.0,VALID,93.544,VALID,56.301,VALID,20.569,VALID,127.0,VALID,1.9,
2017-06-27, 07:01:06,VALID,917.436,VALID,0.0,VALID,93.525,VALID,58.3,VALID,20.571,VALID,130.0,VALID,2.041,
2017-06-27, 07:02:06,VALID,917.421,VALID,0.0,VALID,93.482,VALID,62.41,VALID,20.572,VALID,120.0,VALID,2.391,
2017-06-27, 07:03:06,VALID,917.425,VALID,0.0,VALID,93.481,VALID,70.9,VALID,20.582,VALID,116.0,VALID,2.338,
2017-06-27, 07:04:06,VALID,917.423,VALID,0.0,VALID,93.474,VALID,80.742,VALID,20.601,VALID,128.0,VALID,2.155,
2017-06-27, 07:05:06,VALID,917.448,VALID,0.0,VALID,93.439,VALID,92.004,VALID,20.611,VALID,124.0,VALID,2.234,
2017-06-27, 07:06:06,VALID,917.469,VALID,0.0,VALID,93.566,VALID,92.427,VALID,20.618,VALID,126.0,VALID,1.512,
2017-06-27, 07:07:06,VALID,917.517,VALID,0.0,VALID,93.596,VALID,98.276,VALID,20.621,VALID,112.0,VALID,2.041,
2017-06-27, 07:08:06,VALID,917.566,VALID,0.0,VALID,93.258,VALID,110.57,VALID,20.675,VALID,120.0,VALID,2.132,
2017-06-27, 07:09:06,VALID,917.576,VALID,0.0,VALID,93.065,VALID,123.062,VALID,20.735,VALID,131.0,VALID,1.914,
2017-06-27, 07:10:06,VALID,917.596,VALID,0.0,VALID,92.945,VALID,133.612,VALID,20.781,VALID,138.0,VALID,1.778,
2017-06-27, 07:11:06,VALID,917.599,VALID,0.0,VALID,92.856,VALID,145.978,VALID,20.812,VALID,127.0,VALID,2.103,
2017-06-27, 07:12:06,VALID,917.582,VALID,0.0,VALID,92.865,VALID,148.491,VALID,20.849,VALID,129.0,VALID,2.093,
2017-06-27, 07:13:06,VALID,917.572,VALID,0.0,VALID,92.499,VALID,146.128,VALID,20.886,VALID,139.0,VALID,2.366,
2017-06-27, 07:14:06,VALID,917.592,VALID,0.0,VALID,92.35,VALID,145.721,VALID,20.941,VALID,130.0,VALID,2.316,
2017-06-27, 07:15:06,VALID,917.607,VALID,0.0,VALID,92.153,VALID,138.585,VALID,20.954,VALID,122.0,VALID,3.13,
2017-06-27, 07:16:06,VALID,917.616,VALID,0.0,VALID,92.087,VALID,139.845,VALID,20.953,VALID,121.0,VALID,2.783,
2017-06-27, 07:17:06,VALID,917.632,VALID,0.0,VALID,92.366,VALID,154.506,VALID,20.963,VALID,134.0,VALID,1.965,
2017-06-27, 07:18:06,VALID,917.653,VALID,0.0,VALID,92.208,VALID,172.727,VALID,20.976,VALID,132.0,VALID,2.725,
2017-06-27, 07:19:06,VALID,917.661,VALID,0.0,VALID,91.917,VALID,178.787,VALID,21.002,VALID,139.0,VALID,2.601,
2017-06-27, 07:20:06,VALID,917.66,VALID,0.0,VALID,91.629,VALID,184.323,VALID,21.04,VALID,147.0,VALID,2.219,
2017-06-27, 07:21:06,VALID,917.69,VALID,0.0,VALID,92.048,VALID,186.523,VALID,21.059,VALID,144.0,VALID,1.952,
2017-06-27, 07:22:06,VALID,917.7,VALID,0.0,VALID,92.21,VALID,186.432,VALID,21.072,VALID,139.0,VALID,2.457,
2017-06-27, 07:23:06,VALID,917.707,VALID,0.0,VALID,92.43,VALID,185.298,VALID,21.086,VALID,147.0,VALID,1.935,
2017-06-27, 07:24:06,VALID,917.72,VALID,0.0,VALID,92.721,VALID,179.96,VALID,21.07,VALID,153.0,VALID,1.661,
2017-06-27, 07:25:06,VALID,917.743,VALID,0.0,VALID,92.614,VALID,178.109,VALID,21.039,VALID,140.0,VALID,2.322,
2017-06-27, 07:26:06,VALID,917.77,VALID,0.0,VALID,92.484,VALID,176.811,VALID,21.026,VALID,134.0,VALID,2.431,
2017-06-27, 07:27:06,VALID,917.785,VALID,0.0,VALID,92.107,VALID,185.609,VALID,21.057,VALID,130.0,VALID,2.281,
2017-06-27, 07:28:06,VALID,917.823,VALID,0.0,VALID,92.167,VALID,193.301,VALID,21.127,VALID,119.0,VALID,2.115,
2017-06-27, 07:29:06,VALID,917.865,VALID,0.0,VALID,92.196,VALID,196.485,VALID,21.17,VALID,112.0,VALID,2.647,
2017-06-27, 07:30:06,VALID,917.903,VALID,0.0,VALID,91.04,VALID,200.976,VALID,21.132,VALID,105.0,VALID,2.679,
2017-06-27, 07:31:06,VALID,917.947,VALID,0.0,VALID,91.963,VALID,207.091,VALID,21.153,VALID,116.0,VALID,1.638,
2017-06-27, 07:32:06,VALID,917.974,VALID,0.0,VALID,92.28,VALID,209.073,VALID,21.223,VALID,100.0,VALID,1.673,
2017-06-27, 07:33:06,VALID,917.989,VALID,0.0,VALID,91.675,VALID,211.666,VALID,21.283,VALID,103.0,VALID,1.908,
2017-06-27, 07:34:06,VALID,917.996,VALID,0.0,VALID,90.438,VALID,215.228,VALID,21.29,VALID,102.0,VALID,2.012,
2017-06-27, 07:35:06,VALID,918.01,VALID,0.0,VALID,91.193,VALID,221.35,VALID,21.29,VALID,109.0,VALID,1.68,
2017-06-27, 07:36:06,VALID,918.023,VALID,0.0,VALID,91.905,VALID,223.844,VALID,21.321,VALID,119.0,VALID,1.553,
2017-06-27, 07:37:06,VALID,918.018,VALID,0.0,VALID,91.781,VALID,225.524,VALID,21.401,VALID,123.0,VALID,1.626,
2017-06-27, 07:38:06,VALID,918.013,VALID,0.0,VALID,91.483,VALID,227.767,VALID,21.474,VALID,133.0,VALID,1.607,
2017-06-27, 07:39:06,VALID,918.024,VALID,0.0,VALID,90.734,VALID,232.539,VALID,21.491,VALID,126.0,VALID,2.299,
2017-06-27, 07:40:06,VALID,918.034,VALID,0.0,VALID,90.663,VALID,233.776,VALID,21.472,VALID,121.0,VALID,2.077,
2017-06-27, 07:41:06,VALID,918.05,VALID,0.0,VALID,92.109,VALID,233.946,VALID,21.503,VALID,109.0,VALID,1.328,
2017-06-27, 07:42:06,VALID,918.075,VALID,0.0,VALID,91.658,VALID,233.857,VALID,21.555,VALID,124.0,VALID,1.691,
2017-06-27, 07:43:06,VALID,918.089,VALID,0.0,VALID,91.506,VALID,234.591,VALID,21.588,VALID,111.0,VALID,1.209,
2017-06-27, 07:44:06,VALID,918.106,VALID,0.0,VALID,91.06,VALID,236.972,VALID,21.625,VALID,117.0,VALID,1.341,
2017-06-27, 07:45:06,VALID,918.152,VALID,0.0,VALID,90.888,VALID,241.78,VALID,21.632,VALID,126.0,VALID,1.565,
2017-06-27, 07:46:06,VALID,918.174,VALID,0.0,VALID,89.972,VALID,247.689,VALID,21.61,VALID,121.0,VALID,2.264,
2017-06-27, 07:47:06,VALID,918.205,VALID,0.0,VALID,90.325,VALID,239.987,VALID,21.569,VALID,128.0,VALID,1.722,
2017-06-27, 07:48:06,VALID,918.209,VALID,0.0,VALID,90.442,VALID,241.492,VALID,21.575,VALID,114.0,VALID,1.87,
2017-06-27, 07:49:06,VALID,918.204,VALID,0.0,VALID,90.768,VALID,245.993,VALID,21.6,VALID,125.0,VALID,1.85,
2017-06-27, 07:50:06,VALID,918.198,VALID,0.0,VALID,90.201,VALID,251.38,VALID,21.624,VALID,132.0,VALID,2.074,
2017-06-27, 07:51:06,VALID,918.184,VALID,0.0,VALID,90.893,VALID,257.999,VALID,21.657,VALID,105.0,VALID,1.866,
2017-06-27, 07:52:06,VALID,918.192,VALID,0.0,VALID,90.22,VALID,251.037,VALID,21.658,VALID,117.0,VALID,2.259,
2017-06-27, 07:53:06,VALID,918.216,VALID,0.0,VALID,90.575,VALID,258.486,VALID,21.671,VALID,129.0,VALID,1.311,
2017-06-27, 07:54:06,VALID,918.247,VALID,0.0,VALID,90.54,VALID,267.78,VALID,21.714,VALID,99.0,VALID,1.974,
2017-06-27, 07:55:06,VALID,918.271,VALID,0.0,VALID,90.537,VALID,266.836,VALID,21.733,VALID,95.0,VALID,1.627,
2017-06-27, 07:56:06,VALID,918.292,VALID,0.0,VALID,90.129,VALID,266.594,VALID,21.785,VALID,100.0,VALID,1.461,
2017-06-27, 07:57:06,VALID,918.299,VALID,0.0,VALID,90.637,VALID,276.422,VALID,21.855,VALID,110.0,VALID,1.339,
2017-06-27, 07:58:06,VALID,918.292,VALID,0.0,VALID,90.034,VALID,286.66,VALID,21.948,VALID,129.0,VALID,1.692,
2017-06-27, 07:59:06,VALID,918.29,VALID,0.0,VALID,89.074,VALID,281.854,VALID,21.975,VALID,141.0,VALID,1.571,
2017-06-27, 08:00:06,VALID,918.278,VALID,0.0,VALID,89.941,VALID,288.817,VALID,21.992,VALID,119.0,VALID,1.262,
2017-06-27, 08:01:06,VALID,918.272,VALID,0.0,VALID,89.007,VALID,293.576,VALID,21.999,VALID,115.0,VALID,1.858,
2017-06-27, 08:02:06,VALID,918.277,VALID,0.0,VALID,88.945,VALID,294.797,VALID,21.908,VALID,114.0,VALID,1.831,
2017-06-27, 08:03:06,VALID,918.29,VALID,0.0,VALID,89.747,VALID,297.507,VALID,21.853,VALID,103.0,VALID,1.443,
2017-06-27, 08:04:06,VALID,918.308,VALID,0.0,VALID,90.294,VALID,296.11,VALID,21.889,VALID,122.0,VALID,2.229,
2017-06-27, 08:05:06,VALID,918.32,VALID,0.0,VALID,88.964,VALID,296.464,VALID,21.923,VALID,124.0,VALID,1.589,
2017-06-27, 08:06:06,VALID,918.329,VALID,0.0,VALID,89.853,VALID,301.097,VALID,22.019,VALID,120.0,VALID,1.048,
2017-06-27, 08:07:06,VALID,918.322,VALID,0.0,VALID,89.532,VALID,300.532,VALID,22.151,VALID,110.0,VALID,1.675,
2017-06-27, 08:08:06,VALID,918.306,VALID,0.0,VALID,87.063,VALID,313.643,VALID,22.109,VALID,118.0,VALID,2.039,
2017-06-27, 08:09:06,VALID,918.297,VALID,0.0,VALID,89.09,VALID,338.373,VALID,22.176,VALID,118.0,VALID,1.438,
2017-06-27, 08:10:06,VALID,918.286,VALID,0.0,VALID,88.843,VALID,345.955,VALID,22.299,VALID,114.0,VALID,1.612,
2017-06-27, 08:11:06,VALID,918.283,VALID,0.0,VALID,89.384,VALID,348.986,VALID,22.38,VALID,128.0,VALID,1.698,
2017-06-27, 08:12:06,VALID,918.291,VALID,0.0,VALID,88.453,VALID,344.978,VALID,22.495,VALID,131.0,VALID,1.332,
